RH
28 35 37 40 42 53 61 58 77 88 88 98 94 93 90 83 86 87 86 84 77 66 61 61 58 52 49 52 54 52 52 58 61 69 68 50 40 38 40 44 43 42 47 56 65 66 60 64 67 72 79 75 74 77 87 87 71 68 76 73 68 83 91 88 85 83 86 80 85 86 82 87 88 92 90 92 92 87 91 92 88 86 85 85 86 85 86 87 92 90 91 97 95 97 95 95 94
29 34 35 39 48 59 63 62 89 100 94 99 94 94 92 87 86 85 87 87 75 59 57 55 50 46 43 44 43 48 47 43 43 51 51 40 39 35 36 42 42 42 46 58 68 65 61 66 67 70 79 80 78 74 76 82 84 84 87 80 73 87 90 87 74 67 82 80 87 90 87 93 87 87 88 92 96 87 87 93 89 85 86 87 90 88 88 90 90 89 93 97 96 99 96 97 93
31 34 37 44 56 62 65 71 90 100 99 98 94 93 91 91 89 86 85 82 70 54 55 47 42 45 46 49 44 51 50 40 40 41 41 39 40 37 35 40 42 44 48 59 65 60 59 65 69 70 74 81 83 78 73 74 81 87 93 86 74 85 89 85 80 73 81 84 88 88 89 95 88 81 81 90 96 90 88 96 93 83 85 90 91 88 89 91 92 92 95 98 95 96 94 96 90
32 38 46 51 60 65 75 85 93 98 98 98 97 94 91 92 87 85 73 69 69 51 46 41 38 41 44 53 45 47 47 41 45 43 46 48 48 46 42 40 41 45 48 55 62 63 63 67 73 73 73 77 83 84 78 72 76 83 91 90 75 81 90 85 88 85 79 79 82 85 87 90 88 77 75 85 91 94 92 91 92 85 84 89 91 88 88 91 94 94 94 97 95 93 89 91 88
33 43 52 53 61 65 75 86 94 97 95 96 96 89 87 91 88 80 56 46 54 43 37 37 39 39 38 46 42 47 48 44 47 48 53 55 52 49 47 42 41 45 47 53 63 72 74 74 77 77 74 70 78 85 84 80 79 81 83 91 83 80 92 90 86 88 81 75 79 88 86 85 86 79 79 87 90 95 93 84 88 91 84 88 92 87 88 90 92 95 94 93 96 93 89 90 87
33 43 53 54 57 58 70 85 92 95 93 88 87 82 70 72 75 64 45 33 35 32 31 33 38 40 41 45 43 48 50 47 49 53 56 56 54 51 49 43 42 46 47 56 67 80 82 78 80 83 82 77 82 86 87 89 88 84 80 91 92 80 86 90 86 88 83 80 88 91 85 86 86 80 80 85 90 95 94 82 85 92 82 83 87 87 86 87 90 97 95 91 97 92 92 93 83
38 44 56 59 59 60 77 90 90 93 87 77 81 78 55 51 53 45 42 37 32 29 30 35 36 41 47 49 47 49 51 52 54 60 63 61 58 53 49 43 44 48 50 59 72 85 87 84 87 90 91 91 92 92 92 92 93 91 86 90 89 81 83 88 87 82 83 86 87 88 86 89 88 83 78 79 87 93 95 87 88 91 84 81 82 88 88 86 90 97 98 92 96 91 96 96 81
49 49 53 63 72 69 82 88 86 92 78 58 61 59 42 41 39 36 44 41 38 33 32 37 35 46 52 48 49 49 50 53 57 63 64 62 58 52 49 44 43 51 57 61 74 85 87 91 97 95 94 94 95 96 96 93 95 95 91 89 86 87 83 82 83 72 78 84 78 82 87 90 91 88 83 81 86 87 89 89 89 90 89 83 78 90 91 88 92 94 100 94 92 92 97 97 85
48 50 48 60 73 70 81 83 80 84 59 34 34 35 31 33 30 34 42 38 38 33 33 35 33 47 51 47 47 46 47 52 56 60 60 59 57 55 51 46 47 60 67 65 73 84 88 95 99 97 96 97 97 96 97 96 97 95 92 90 89 93 83 78 84 72 70 79 77 81 83 87 92 91 87 84 83 80 84 87 85 89 95 86 76 89 92 88 93 94 99 96 93 93 93 97 93
41 47 46 56 66 67 76 77 82 72 37 27 29 26 27 30 31 35 39 37 38 33 32 34 36 45 47 49 47 44 47 50 52 54 57 59 59 59 54 51 59 72 78 74 78 88 93 99 100 98 98 98 97 97 98 96 97 96 92 91 89 93 89 81 88 83 75 79 83 83 80 83 87 90 88 84 83 80 84 89 83 84 93 88 80 88 92 88 92 94 96 97 95 94 92 92 94
39 40 38 50 58 59 72 76 82 62 33 38 31 23 27 28 30 33 37 36 34 32 31 32 37 42 45 47 42 44 48 47 48 50 56 60 60 60 57 58 65 77 85 87 91 95 97 99 100 99 99 97 95 97 98 97 98 97 94 94 92 92 92 87 86 86 83 84 87 86 83 83 85 89 89 86 86 85 85 87 85 82 85 86 80 82 92 92 89 92 94 97 95 93 94 90 93
37 51 53 58 61 59 70 74 68 53 46 47 28 25 29 25 30 35 38 35 32 32 31 31 35 39 49 50 41 43 45 45 48 51 57 58 59 60 61 61 64 76 87 95 99 99 100 100 100 100 100 97 97 100 99 99 99 97 96 96 97 93 91 91 88 84 86 87 87 87 87 87 88 88 88 89 90 89 87 84 86 87 85 85 81 78 87 94 90 90 93 95 96 94 95 90 93
35 57 59 57 69 65 62 62 56 49 46 39 28 31 28 25 34 36 35 33 33 33 32 33 33 36 48 48 39 41 43 45 48 50 53 54 57 59 61 62 62 71 80 91 96 95 98 98 99 99 99 99 100 100 99 100 99 98 98 97 98 97 91 88 86 80 83 87 88 89 89 90 89 89 87 88 90 92 91 86 85 88 87 86 83 77 78 90 92 90 90 92 97 97 94 89 91
27 39 44 50 64 61 49 45 47 44 38 34 28 30 28 28 32 30 30 31 34 34 34 35 32 35 43 46 39 39 42 43 45 46 48 48 51 54 56 58 59 62 67 76 78 80 85 87 91 92 95 98 99 100 99 99 100 100 99 98 98 97 89 81 76 73 73 75 81 84 86 90 89 89 89 87 88 91 93 89 85 86 88 87 84 80 74 81 90 90 88 92 97 96 93 84 84
20 25 39 44 46 51 45 37 44 46 39 34 27 29 29 31 33 30 31 34 36 34 35 35 33 36 42 46 41 37 39 41 41 42 44 43 44 46 48 50 52 54 56 59 61 62 64 68 74 77 80 84 88 94 96 97 98 99 99 100 100 98 91 81 76 73 67 62 65 68 72 82 88 89 89 87 87 87 88 87 85 83 85 87 86 85 79 77 84 89 88 91 96 96 94 81 79
19 23 40 40 39 49 46 37 44 47 39 32 28 30 31 33 35 33 33 35 35 33 35 35 33 37 39 39 37 36 36 37 38 38 40 41 40 38 37 37 39 41 43 44 47 46 45 48 52 56 59 61 67 74 79 85 86 87 91 92 92 95 97 93 89 85 77 68 64 60 59 67 81 89 88 88 88 87 85 82 82 81 85 87 83 82 83 84 79 79 85 90 95 97 97 88 82
15 22 39 39 44 48 45 39 38 39 36 33 28 30 36 38 34 32 34 33 33 35 35 36 35 35 35 35 35 34 33 33 34 35 36 36 36 35 32 30 28 29 29 30 31 31 32 34 35 36 39 41 46 49 53 61 63 67 74 74 71 73 85 93 94 95 93 87 80 73 67 63 70 83 88 90 90 90 89 83 81 80 84 88 85 82 80 85 82 77 80 85 94 95 95 96 90
18 36 38 38 54 49 44 42 34 34 30 27 27 29 37 39 34 31 35 33 34 35 34 35 35 34 33 34 34 33 31 30 29 30 31 29 29 29 28 26 25 23 22 22 22 22 23 24 24 24 25 27 29 32 34 37 38 42 49 53 52 46 52 66 71 76 87 92 90 88 87 80 74 77 86 92 93 92 92 90 87 82 82 84 84 88 85 79 78 79 78 81 93 94 93 97 95
26 43 34 46 69 48 34 34 29 27 22 25 28 29 32 34 31 30 38 39 34 37 37 35 34 33 32 32 32 31 28 26 25 25 25 24 24 24 24 23 23 22 21 21 20 20 20 19 20 19 19 19 20 22 23 24 25 27 29 31 34 29 25 36 40 40 52 67 78 86 92 94 86 79 83 90 94 92 92 93 92 89 85 83 81 86 90 81 73 75 78 80 91 95 96 100 98
23 29 29 55 69 41 24 23 23 21 20 25 28 29 30 30 30 31 42 43 41 43 38 35 36 33 31 30 28 26 25 23 23 23 23 23 24 24 24 24 23 23 22 22 21 20 20 19 18 18 18 17 17 18 17 19 20 20 21 19 20 20 17 21 25 22 25 32 45 61 72 87 91 86 83 84 91 92 92 94 94 95 89 86 85 82 85 84 75 73 78 82 89 95 97 100 99
20 24 33 48 47 32 21 17 20 21 21 24 26 30 30 30 32 34 40 44 50 46 32 32 34 33 31 27 25 24 23 23 23 23 24 24 25 26 25 26 25 24 24 23 23 21 20 20 19 18 17 17 16 16 16 16 15 15 16 17 16 16 15 15 16 16 16 16 20 28 36 55 75 83 83 80 86 89 92 95 94 94 90 89 89 85 83 85 81 74 76 82 89 93 94 99 99
21 25 30 31 29 26 21 18 20 22 23 26 29 30 28 30 33 35 37 41 48 38 29 31 31 33 32 27 25 24 23 23 24 24 25 26 27 28 27 27 26 25 25 24 24 24 23 21 20 19 18 17 16 16 16 15 14 14 13 14 14 13 14 13 12 12 12 12 11 13 14 21 38 55 68 75 80 84 88 94 96 94 93 93 92 89 86 85 86 81 74 78 89 93 93 97 98
25 28 24 21 24 22 19 19 19 21 24 27 30 27 27 31 31 35 35 35 37 30 28 31 31 33 31 29 26 25 26 25 26 27 27 28 28 29 29 27 27 27 26 26 27 26 25 23 21 19 18 17 17 17 17 16 15 15 14 13 13 12 12 12 12 12 11 11 9 10 10 9 13 22 35 50 64 74 82 88 93 96 96 96 93 92 90 86 87 87 79 74 83 92 94 95 96
29 32 25 18 21 20 19 20 19 21 24 24 26 25 26 30 29 34 36 35 33 29 30 30 32 34 31 30 28 28 29 27 28 29 29 30 30 30 29 29 29 28 28 28 28 28 28 25 21 18 18 17 18 18 17 17 16 15 16 14 14 13 13 13 12 12 11 11 10 10 10 10 9 9 12 21 34 48 62 75 83 90 94 97 96 93 92 91 89 90 87 78 76 83 89 95 94
33 32 28 22 18 19 19 19 19 22 25 24 25 26 27 29 29 31 35 34 31 29 30 32 33 33 32 31 31 31 29 29 30 30 31 30 31 31 30 30 30 30 30 30 30 29 27 23 19 18 18 18 18 18 17 17 17 16 16 15 15 15 14 14 13 12 12 11 11 11 10 10 9 9 9 9 13 20 33 51 66 78 86 92 96 97 95 94 93 90 91 87 80 77 79 88 93
35 31 31 25 18 20 20 18 20 23 26 26 26 29 30 29 30 32 32 30 30 31 30 32 33 32 33 33 33 32 29 30 31 30 31 31 32 31 29 30 28 28 27 27 26 24 22 19 19 19 18 18 17 17 17 16 16 16 16 15 15 15 15 15 14 13 13 12 12 12 11 12 11 10 10 9 8 9 13 25 40 57 72 82 86 90 95 95 94 92 90 91 89 83 77 78 84
35 34 30 25 20 19 17 17 21 24 25 25 28 33 34 29 31 36 34 30 30 31 32 32 33 32 33 34 32 31 30 31 31 31 32 33 33 29 27 27 24 22 21 21 21 20 20 20 19 19 17 17 16 16 16 16 15 15 15 14 14 14 14 14 14 14 13 14 14 14 14 14 15 13 11 10 9 8 7 11 18 29 47 68 77 78 87 95 96 96 93 91 93 91 85 79 77
31 30 26 25 24 18 16 19 21 24 24 24 29 34 33 30 34 38 32 30 31 30 33 32 31 34 34 34 32 31 31 31 31 32 31 31 29 25 22 21 20 20 20 20 21 21 20 20 19 18 18 17 17 17 17 17 16 16 15 14 14 14 14 14 14 15 14 15 17 20 22 20 19 17 14 11 10 9 6 7 10 14 22 42 65 73 80 90 94 96 95 95 95 93 89 86 81
26 26 30 35 31 21 19 25 22 23 27 24 26 31 36 38 36 34 30 30 32 30 32 33 32 34 34 33 32 31 32 31 30 27 25 24 22 21 20 19 21 21 21 21 21 21 20 19 19 18 18 18 18 18 18 19 17 17 16 15 15 14 14 15 15 16 16 17 22 30 35 33 27 21 17 13 11 10 7 6 6 9 13 21 43 63 74 82 88 90 91 97 100 95 91 91 89
21 31 44 47 37 28 23 27 24 21 25 23 23 26 36 45 34 28 32 31 31 33 34 34 34 34 34 33 32 32 32 30 24 20 19 20 20 21 21 21 22 21 22 21 20 20 20 19 19 18 19 19 19 20 19 20 20 19 19 17 17 17 17 18 17 18 18 19 26 39 45 43 37 29 22 17 13 10 8 7 4 5 11 16 29 50 69 79 84 87 85 91 98 99 97 95 94
33 42 56 52 35 36 34 30 28 22 22 19 20 25 30 37 32 26 32 32 31 36 36 35 35 34 33 32 32 31 28 23 19 19 20 21 22 22 23 23 22 23 22 21 21 20 20 20 21 20 21 22 21 22 21 22 23 23 22 20 19 19 20 21 20 19 19 19 24 38 48 45 42 39 33 26 18 13 9 7 6 4 7 16 27 43 62 77 83 87 85 86 94 100 100 98 96
53 38 44 50 37 44 45 33 30 24 20 17 19 32 36 34 32 27 32 35 33 36 37 36 35 32 32 32 30 26 22 20 20 22 23 22 24 23 24 24 23 23 22 22 22 20 22 21 22 23 23 23 22 23 24 24 25 26 25 24 23 23 23 24 24 23 22 22 26 38 48 49 47 46 44 38 26 17 11 8 6 6 8 16 28 39 54 72 83 86 87 89 93 98 100 99 98
60 34 30 47 45 48 48 37 33 25 23 26 25 33 37 32 27 26 33 38 34 37 39 36 33 32 33 31 26 22 21 22 22 23 24 24 25 25 24 24 23 24 23 23 22 22 23 22 22 25 23 21 20 21 26 29 32 33 33 32 31 30 29 28 26 25 27 32 36 43 50 52 51 49 48 46 36 22 16 13 9 10 14 21 31 38 45 62 79 85 87 92 96 96 98 100 99
45 41 40 51 54 53 53 47 37 28 28 31 31 34 34 29 27 29 36 37 35 38 39 35 34 33 31 27 22 22 22 23 23 23 25 26 26 26 26 26 25 25 24 23 24 24 24 24 24 24 24 21 19 21 28 34 38 41 41 41 42 42 42 39 34 31 34 40 45 48 52 52 51 50 49 50 44 32 26 24 20 19 25 30 36 40 42 51 69 81 84 91 99 99 98 100 100
29 36 40 49 60 61 59 52 40 35 34 32 34 37 34 32 35 38 38 36 36 39 38 35 37 35 29 24 22 23 24 24 24 25 27 28 27 27 27 27 26 25 25 25 24 25 25 25 25 26 28 27 27 32 38 41 44 46 45 44 43 44 45 46 45 41 39 44 50 52 54 53 53 54 52 52 50 44 39 37 34 32 33 36 39 42 43 46 59 72 78 86 96 101 99 99 100
29 35 44 50 58 58 54 49 44 42 40 36 36 36 37 42 45 43 40 36 37 39 39 39 40 37 28 24 24 24 24 24 26 27 28 29 28 28 27 27 27 26 26 25 24 26 26 25 27 30 32 33 36 41 44 46 48 47 44 42 40 39 39 41 43 45 44 46 51 55 58 60 60 61 61 58 54 52 50 47 45 43 40 39 41 44 45 47 58 69 73 78 88 98 101 99 99
33 43 56 58 54 46 41 41 41 42 42 38 34 37 48 53 49 43 39 38 40 41 40 39 34 29 25 24 25 25 26 26 28 29 29 30 29 28 28 27 27 27 26 26 26 26 26 26 30 33 36 38 40 43 47 50 50 47 44 43 42 42 43 43 42 42 43 46 48 51 53 54 56 59 64 65 59 55 54 52 49 48 46 43 43 47 49 51 62 77 81 77 80 91 100 100 99
39 43 51 52 44 34 31 33 36 38 41 37 34 47 58 56 51 44 40 41 43 40 36 33 28 25 26 26 26 26 26 28 29 30 30 30 29 28 28 27 27 27 27 27 27 27 28 30 34 38 38 40 44 50 55 55 51 49 49 50 50 51 51 50 48 43 41 44 47 52 53 50 51 58 66 67 63 57 54 52 50 49 50 49 48 49 54 58 62 76 88 85 79 82 95 101 99
41 44 45 45 40 36 36 37 40 39 37 33 40 58 60 55 54 47 44 45 41 35 29 29 27 27 28 27 28 27 27 29 30 31 30 30 29 29 29 29 28 28 28 29 29 29 30 35 41 42 41 47 58 65 66 63 61 59 59 60 60 59 58 55 53 47 42 42 47 57 62 58 57 65 72 70 66 61 55 51 49 49 52 55 56 53 57 65 64 65 77 86 83 78 86 97 100
42 43 41 42 42 42 38 35 36 36 38 38 46 63 60 53 54 50 48 45 37 31 27 27 28 27 29 28 29 29 28 31 31 31 30 30 30 30 30 30 29 28 29 30 30 32 39 49 56 56 58 68 76 74 66 61 67 72 69 68 67 63 61 58 54 48 46 49 54 61 68 69 71 75 76 73 70 67 61 56 51 48 48 50 57 60 60 65 65 61 63 72 80 77 78 88 97
42 40 38 39 42 43 41 38 33 31 44 47 43 57 62 55 56 54 48 43 38 33 28 29 29 29 30 30 30 31 31 32 32 31 30 31 31 31 30 29 27 28 31 33 37 47 56 62 64 62 62 66 69 67 62 56 65 78 77 72 70 65 62 59 56 55 58 65 68 70 71 74 80 82 78 74 71 68 66 61 57 52 47 45 52 62 65 64 64 62 61 63 68 70 71 77 89
40 38 40 36 40 49 46 39 34 33 43 45 37 49 63 63 62 59 51 48 45 37 31 31 31 31 31 31 32 31 31 32 31 30 31 32 32 31 29 27 26 29 33 39 49 59 60 55 49 45 44 45 50 58 63 61 66 79 82 75 69 66 68 66 62 64 70 74 76 77 75 73 76 79 78 76 73 70 68 63 59 56 50 45 47 59 67 66 62 60 62 63 61 60 62 65 75
40 41 46 44 45 50 40 31 39 43 42 40 36 40 53 61 64 62 56 54 49 39 35 33 31 33 33 32 34 32 31 31 30 30 32 32 31 29 28 26 27 33 39 47 56 55 46 38 33 31 32 32 36 46 56 59 66 79 83 75 68 66 68 69 69 72 73 75 80 82 80 76 74 74 73 72 71 70 69 67 62 57 53 49 47 50 58 62 61 61 65 68 65 61 60 61 63
40 41 44 43 40 38 36 35 43 46 43 48 46 35 39 51 59 64 61 55 50 42 40 37 34 34 33 33 35 33 31 30 30 32 32 31 30 28 27 28 32 39 47 50 48 40 33 30 29 29 31 29 34 47 56 59 65 73 73 67 64 64 70 76 80 85 84 82 87 86 81 77 72 69 66 62 59 59 61 65 64 59 55 54 52 47 49 59 65 66 66 69 72 72 69 68 64
38 44 44 43 41 39 40 39 42 46 46 53 52 39 39 47 56 66 63 59 56 48 43 40 36 35 33 33 34 32 30 31 32 33 33 31 29 28 28 31 37 44 48 43 36 32 30 32 35 37 38 38 46 60 63 61 62 66 69 73 78 83 89 91 90 96 96 90 88 85 79 74 69 64 61 56 50 46 47 53 59 61 56 53 59 57 51 58 70 76 75 72 75 80 77 73 68
36 46 44 40 41 40 40 40 45 49 47 49 44 35 42 51 59 71 70 65 60 47 42 40 36 35 34 32 32 32 31 32 34 33 33 31 29 28 28 34 42 45 42 37 33 33 34 38 42 44 44 47 58 66 64 61 64 73 80 83 85 85 83 82 88 96 96 88 81 76 72 68 64 60 56 53 49 42 38 39 46 53 55 54 58 61 62 71 83 91 92 83 76 79 81 75 68
35 44 41 32 33 37 44 49 52 50 47 55 45 31 42 54 62 71 68 61 52 42 42 41 37 35 34 32 31 32 33 34 35 34 32 30 30 29 29 36 42 42 40 37 34 35 38 43 46 48 48 51 60 64 62 61 67 77 80 75 68 60 57 71 93 100 92 84 78 72 69 66 63 60 55 51 47 42 37 36 40 44 52 57 57 66 81 91 96 99 97 90 76 69 74 77 71
37 42 39 35 36 37 39 46 60 59 46 50 43 31 43 53 57 60 53 47 45 43 44 43 41 36 32 33 34 35 35 35 34 33 32 30 31 29 29 34 37 40 40 37 36 38 42 46 49 51 51 53 60 60 59 60 65 72 71 64 56 48 57 82 101 101 91 86 81 75 72 68 65 61 56 53 53 53 45 40 45 46 51 57 61 78 98 100 100 101 98 94 84 70 70 78 77
39 43 43 48 53 52 47 45 58 59 42 39 36 38 48 46 46 50 44 42 45 44 41 38 38 36 35 37 37 36 35 34 33 32 32 31 31 30 30 31 33 38 40 37 38 42 45 49 52 53 54 56 60 59 58 60 66 70 65 61 60 59 75 96 101 98 95 89 85 81 75 71 66 59 57 64 71 71 58 50 57 57 55 58 62 76 94 97 95 94 91 87 82 73 69 79 84
41 44 46 55 59 64 66 54 55 57 46 36 31 46 62 49 44 47 39 39 42 36 35 36 37 39 40 38 36 35 34 33 33 32 32 32 31 31 31 31 33 37 40 39 41 45 49 53 54 55 58 60 61 60 60 65 71 71 63 66 75 74 82 97 99 98 96 90 87 82 75 72 65 58 67 83 85 77 67 64 69 65 58 60 62 65 71 77 79 79 78 75 71 68 66 72 81
45 44 43 52 53 59 66 57 58 63 54 45 41 59 76 62 51 47 35 35 37 34 38 43 43 42 40 37 35 35 33 32 33 31 31 31 31 32 32 32 34 38 40 40 44 49 52 55 57 59 61 62 62 61 64 70 74 74 72 79 87 84 87 99 102 100 96 90 86 79 75 74 66 60 76 90 83 73 70 68 69 66 62 62 64 64 62 65 73 76 74 69 64 64 67 71 79
46 44 47 56 48 50 60 55 56 64 67 69 66 65 65 55 51 46 37 38 38 39 45 45 44 41 38 37 34 33 33 32 32 31 31 32 32 33 33 33 37 40 41 44 49 53 56 59 61 62 63 63 62 63 68 74 74 73 78 82 84 83 87 92 93 93 91 86 81 78 76 73 65 62 75 85 80 72 63 59 68 80 83 76 68 66 67 71 79 81 77 71 69 74 82 85 87
41 47 48 46 37 43 63 64 59 69 80 78 71 62 51 50 55 45 39 43 41 44 49 43 41 39 35 35 33 32 32 31 32 32 32 33 33 34 34 35 39 40 43 49 53 56 59 62 63 64 64 64 63 66 72 76 73 71 72 70 69 72 76 78 79 81 82 80 80 80 74 71 75 77 82 86 81 70 59 61 81 97 99 94 84 78 79 79 78 81 86 85 84 91 96 91 87
42 55 46 38 43 51 66 73 70 80 86 69 58 61 56 57 62 49 41 46 45 47 48 40 37 36 34 34 33 32 32 31 33 33 32 34 34 35 36 37 40 43 48 54 57 60 63 64 65 65 66 65 67 72 77 75 71 70 72 73 76 82 86 85 81 79 80 79 76 72 67 74 89 93 92 90 82 76 77 85 97 100 99 100 98 93 92 89 82 80 89 97 97 98 100 93 88
37 44 36 40 57 63 71 78 77 85 90 73 58 59 58 59 63 54 47 50 50 48 43 37 35 35 35 35 33 33 33 33 34 34 34 36 35 36 39 41 44 48 53 57 59 63 65 66 66 66 68 71 72 74 79 78 71 69 77 85 90 93 89 79 71 68 70 72 74 74 74 79 87 88 88 86 83 90 98 99 98 97 99 100 100 100 99 96 93 86 86 97 101 99 98 96 93
39 38 36 47 55 56 68 77 78 84 87 81 74 65 57 54 52 50 49 48 48 45 39 37 37 36 36 35 34 34 34 34 35 36 36 36 37 40 42 46 51 54 56 59 63 66 68 69 70 70 70 72 78 79 79 77 71 73 86 95 94 88 76 67 68 71 74 80 86 88 87 85 83 83 84 79 81 96 102 96 94 97 100 100 99 100 100 99 100 95 89 92 97 97 95 92 92
48 49 54 62 57 55 67 70 71 83 85 83 83 72 56 44 39 43 45 40 40 39 39 40 38 36 36 34 34 35 35 36 36 37 38 38 41 45 50 55 57 56 59 63 67 71 71 71 72 75 73 72 82 87 83 76 72 80 96 100 91 79 67 70 86 92 88 87 87 84 84 84 82 82 81 77 80 93 96 91 92 97 100 100 99 99 100 99 100 99 95 89 87 93 94 90 90
41 45 47 54 59 63 73 72 64 73 79 72 77 81 64 42 33 38 37 33 37 39 40 40 37 36 36 34 35 36 36 38 38 40 43 45 49 55 60 61 57 59 65 69 73 76 76 76 73 72 73 78 87 88 83 78 77 85 97 94 84 77 71 75 86 87 80 76 74 72 72 70 70 74 78 78 81 88 88 84 89 97 100 100 99 100 99 99 99 100 100 94 88 92 94 90 90
Wind_Speed
5 5 5 5 7 8 7 4 0 1 0 2 1 1 4 2 1 1 2 2 0 4 8 3 4 6 3 6 12 14 13 6 2 0 2 5 3 3 7 4 5 4 4 3 3 5 5 4 4 6 7 9 9 7 6 6 6 7 6 7 5 5 5 5 9 9 7 6 6 8 8 8 9 8 9 7 7 9 9 8 10 9 9 11 12 13 14 13 11 12 12 10 9 8 8 10 12
6 6 6 7 10 8 5 3 0 2 0 3 2 3 4 2 1 4 5 6 2 1 7 8 11 11 12 16 16 14 13 11 8 3 1 8 3 3 7 5 5 4 4 2 3 6 7 6 4 4 7 8 8 8 9 7 5 6 6 7 6 5 6 8 6 7 6 8 7 7 6 6 8 9 10 9 7 9 9 9 10 9 10 12 12 13 13 13 12 12 12 10 9 8 7 8 13
6 7 7 9 11 6 3 1 0 0 1 4 3 3 2 1 4 7 6 6 2 3 10 13 15 13 11 11 8 6 6 9 11 6 3 10 4 4 10 8 6 5 4 2 5 8 9 8 6 4 5 7 8 8 10 10 6 6 7 8 7 8 6 8 5 5 5 7 8 7 7 6 7 9 11 10 8 8 9 9 10 10 11 12 11 11 12 13 13 12 12 10 9 9 7 8 15
6 7 8 11 9 3 2 1 1 3 3 3 2 4 2 3 6 5 3 3 2 3 9 10 8 6 6 6 6 6 6 6 11 11 8 12 10 9 12 8 7 4 3 1 5 6 8 9 7 5 5 6 8 8 8 10 7 5 6 8 8 9 8 7 7 7 6 7 8 9 8 6 8 10 10 10 8 9 9 10 11 10 12 11 11 12 13 13 12 13 12 11 10 11 11 11 17
7 8 10 11 6 1 2 0 1 2 4 3 1 5 4 5 5 4 4 5 3 3 5 6 4 7 10 9 6 4 8 6 7 12 10 11 9 8 10 8 7 5 3 2 5 3 2 4 5 7 7 6 7 7 6 7 6 7 6 7 9 8 10 7 7 8 9 8 9 11 9 7 9 10 9 10 9 9 9 12 12 10 12 11 12 13 14 15 14 13 14 13 11 11 11 11 16
6 8 9 9 3 1 1 1 1 2 4 4 2 5 4 3 2 1 5 9 7 4 4 5 6 10 11 12 14 11 9 6 5 11 10 10 9 8 9 8 7 5 3 3 5 4 3 3 3 7 10 8 7 6 5 5 5 6 6 6 8 7 8 7 8 10 11 10 9 10 10 10 10 9 9 9 9 9 9 12 12 10 11 12 12 14 16 16 15 14 15 14 11 11 10 10 15
5 7 6 6 2 1 2 2 3 3 4 4 4 5 4 1 4 5 5 5 6 6 6 9 9 11 8 7 12 14 10 7 6 9 9 8 8 7 8 8 6 4 3 5 5 5 5 5 8 11 15 11 7 6 4 4 5 4 5 6 8 8 7 8 10 13 11 10 9 10 12 12 10 10 10 10 10 10 9 11 13 12 12 13 13 15 16 16 16 15 15 14 12 12 10 11 15
4 5 2 3 1 1 1 2 4 3 3 2 3 4 3 1 5 4 3 2 3 6 7 7 5 5 4 6 7 10 10 8 8 7 6 5 5 6 7 7 5 2 5 7 6 7 7 8 11 13 14 11 7 7 6 6 6 4 5 6 7 8 8 9 9 10 12 10 8 10 14 13 11 11 11 10 11 11 11 12 13 12 11 13 14 15 16 17 16 15 15 15 13 13 11 12 16
4 3 0 1 1 1 1 3 3 3 3 2 2 3 3 1 2 2 2 2 3 6 9 5 1 3 7 10 9 8 9 8 7 5 4 4 5 5 6 5 2 2 5 8 9 8 8 9 11 12 12 11 10 9 7 6 6 5 5 6 7 7 8 8 8 7 11 11 9 11 13 13 13 12 11 11 12 13 13 13 13 12 11 13 15 14 15 17 17 16 16 15 14 13 12 12 15
1 2 1 1 0 2 3 3 3 3 3 3 4 3 4 2 2 4 4 3 4 4 9 8 5 8 10 8 6 6 9 6 4 3 4 5 5 5 4 3 1 3 6 7 9 9 9 9 9 10 10 11 9 7 8 7 6 6 5 6 7 7 7 7 8 8 9 11 11 11 12 13 14 13 13 12 13 14 12 13 14 13 12 13 15 15 16 17 18 18 16 15 14 13 13 14 16
0 0 2 2 1 2 3 3 4 4 3 4 4 3 4 1 4 6 5 4 5 5 6 7 6 10 10 6 6 5 5 4 3 3 5 5 4 4 4 4 3 2 4 5 6 7 6 6 6 6 6 6 5 5 8 8 7 6 5 6 6 7 7 7 8 10 10 11 11 11 12 15 15 13 13 14 15 14 12 13 13 14 14 14 16 17 16 16 17 16 15 15 15 14 14 14 17
1 1 3 2 2 3 3 3 4 4 4 4 1 5 4 1 3 3 3 4 3 6 7 7 5 8 6 4 6 5 4 5 6 6 6 4 4 4 4 4 4 3 4 4 4 5 4 4 3 3 2 1 2 4 6 6 5 6 5 5 5 7 8 8 8 10 11 11 12 12 13 15 15 14 15 15 14 14 14 14 14 14 15 16 16 18 18 15 16 16 15 15 16 16 16 14 17
3 2 4 1 3 2 3 2 4 2 4 2 2 4 2 1 3 4 5 4 1 3 5 8 6 7 4 6 7 6 6 7 7 7 6 5 6 6 6 6 5 5 6 4 3 3 3 1 2 1 1 0 2 3 3 3 4 5 6 7 7 7 8 8 8 10 11 11 12 13 14 14 13 15 17 17 15 15 15 15 15 14 15 17 16 17 19 15 15 17 17 17 17 16 16 15 16
3 3 4 2 1 1 3 1 2 2 3 3 1 1 2 3 4 5 4 2 1 2 3 7 4 5 4 7 6 7 8 7 8 8 7 8 8 8 7 8 8 8 8 7 7 6 5 5 5 4 3 2 3 3 3 2 2 4 6 7 8 8 8 8 8 9 11 11 12 13 15 16 15 16 18 18 18 17 16 16 17 15 15 17 16 16 19 17 17 18 19 18 18 17 17 17 17
3 3 3 1 1 2 2 1 1 4 5 3 1 3 5 5 4 3 2 0 2 2 1 4 2 1 3 6 5 7 8 7 8 8 8 9 9 10 11 11 11 11 11 11 11 11 11 9 7 7 6 6 6 5 5 5 4 4 6 6 8 9 9 9 10 10 12 12 11 12 15 17 17 17 18 19 18 17 18 19 18 18 16 16 17 16 17 18 18 19 19 19 18 17 18 20 19
3 2 4 1 2 2 3 1 1 3 4 3 4 6 6 4 3 2 3 1 2 3 2 3 4 3 5 10 9 7 7 7 8 9 8 9 9 12 14 15 15 14 14 14 14 15 15 14 13 11 10 10 10 9 7 6 7 5 4 5 7 8 8 9 11 12 13 13 12 12 14 17 20 20 19 19 19 18 19 23 23 21 19 18 18 17 17 17 18 20 19 19 19 18 19 20 21
3 1 3 1 2 2 3 3 2 2 5 3 5 7 3 2 2 4 3 4 6 6 6 6 6 8 11 13 11 9 9 9 10 10 9 9 10 11 13 16 17 18 18 17 17 17 17 16 16 15 14 14 12 11 11 9 10 9 6 6 8 10 8 7 9 11 12 13 14 13 13 15 19 22 22 22 21 19 19 23 26 25 22 19 20 20 19 19 19 20 20 20 20 19 20 21 21
2 2 2 2 2 4 4 5 6 3 2 4 5 7 5 3 4 9 6 6 11 11 11 12 11 12 13 13 11 10 11 11 11 11 11 12 12 13 14 16 17 18 20 19 19 18 17 16 16 16 15 15 13 13 13 12 12 12 10 10 10 13 13 11 11 11 11 11 13 14 15 15 17 20 22 23 21 20 20 21 25 27 26 23 22 21 20 20 20 20 21 21 20 21 21 21 22
2 3 2 3 5 5 4 6 7 4 4 5 3 5 6 4 8 12 5 4 11 11 11 14 16 16 14 14 12 12 12 12 12 12 14 16 16 18 18 18 18 18 19 19 19 18 17 17 16 16 15 14 13 13 13 12 12 12 12 12 12 14 15 14 15 16 16 14 13 13 14 15 16 18 21 23 22 21 21 22 23 25 27 27 26 24 22 22 21 20 21 21 21 23 22 22 24
2 3 1 5 6 4 5 7 8 6 5 5 4 5 5 6 12 12 6 7 6 7 11 12 16 19 16 15 14 13 13 13 14 14 16 18 20 20 20 20 20 20 20 19 19 18 17 16 16 16 16 15 13 12 12 12 12 12 12 13 14 15 16 14 15 16 16 17 17 16 15 14 15 16 18 22 24 25 24 23 24 25 26 28 29 29 29 27 25 23 23 23 24 25 24 23 26
1 4 3 6 5 3 7 9 7 6 6 5 6 5 4 8 14 13 10 8 4 10 17 13 17 23 19 17 16 15 15 15 16 16 18 20 21 21 22 22 22 21 20 19 19 19 19 18 18 18 18 17 16 15 13 13 13 13 12 12 14 15 16 15 15 16 15 17 18 18 20 19 17 17 17 19 22 26 27 26 25 25 27 29 31 32 33 32 31 27 25 27 26 26 26 25 28
1 2 4 5 7 3 7 9 6 6 6 5 7 5 6 10 11 14 14 8 4 9 17 15 18 24 20 19 17 15 16 16 17 17 18 19 20 21 22 22 21 21 21 21 21 22 21 20 20 21 20 19 20 19 18 18 17 16 16 15 15 15 16 16 16 17 17 18 19 19 20 21 21 22 21 20 20 22 25 27 27 26 26 29 32 34 35 35 33 30 27 29 29 28 27 28 29
2 3 4 5 7 3 5 7 6 6 7 6 6 5 8 9 5 12 16 9 5 5 12 17 20 21 19 19 17 15 16 16 17 18 18 19 20 22 22 22 22 22 22 22 23 24 24 23 24 26 24 23 23 22 22 22 23 22 22 22 21 21 20 19 18 18 19 20 22 23 22 23 23 24 25 25 24 23 23 24 26 26 26 27 31 34 36 37 36 34 30 30 32 31 30 30 30
0 2 3 4 6 5 4 6 6 6 8 7 6 5 7 7 3 7 12 9 4 6 15 20 21 20 18 17 16 15 16 17 19 19 20 20 21 23 23 23 23 22 22 22 23 24 25 26 29 30 30 29 27 26 27 27 28 29 28 28 27 27 27 26 24 22 21 21 23 25 26 26 26 26 27 27 28 27 26 25 25 25 25 27 29 32 35 35 37 37 34 32 33 34 33 32 32
3 1 4 4 4 5 3 4 6 7 8 7 6 5 4 3 3 4 6 7 11 16 19 21 21 20 17 16 16 16 17 18 19 19 20 21 21 22 22 21 21 21 22 22 22 24 25 29 32 33 33 33 32 32 33 33 34 34 34 34 33 33 33 32 31 30 29 27 26 27 27 28 28 29 30 30 30 30 30 28 28 27 27 26 26 30 33 33 35 37 38 37 35 36 36 36 35
1 2 5 4 4 4 3 6 7 8 7 5 6 3 2 1 1 3 6 13 18 20 21 22 22 19 17 17 16 17 18 19 19 19 20 21 20 21 20 20 21 22 22 21 22 25 28 32 34 35 36 36 36 36 37 38 39 39 39 39 39 39 38 37 35 34 34 33 33 32 31 31 31 31 32 33 34 34 34 32 30 29 30 30 26 26 29 31 35 38 39 40 40 39 39 38 39
5 5 4 5 5 3 7 10 9 7 7 6 6 2 3 2 1 3 9 19 21 22 23 22 21 20 19 19 18 18 19 20 18 18 19 20 20 20 20 20 22 22 23 24 25 28 30 33 35 36 37 37 37 38 39 39 40 41 41 42 42 42 41 40 38 36 34 34 34 35 35 33 32 32 33 34 36 37 37 37 35 30 30 31 30 28 26 28 33 38 40 42 43 44 44 41 41
6 6 4 6 8 5 12 13 12 9 4 5 4 1 2 1 0 3 13 23 23 23 25 23 22 22 21 20 19 18 19 19 18 19 19 20 20 19 21 22 22 22 24 27 28 30 33 35 36 36 37 38 38 38 38 39 39 40 41 42 43 43 42 41 39 36 34 32 31 32 33 34 34 34 34 35 36 37 37 39 39 36 31 29 30 30 28 28 30 33 38 42 45 46 47 45 43
5 10 1 6 10 5 8 9 10 9 3 5 2 1 2 3 4 4 14 25 25 24 25 24 24 24 23 21 20 18 18 19 19 19 20 19 19 19 21 22 23 24 26 28 30 33 35 36 36 37 39 39 39 40 39 39 40 40 41 41 42 42 41 40 38 35 32 30 29 28 30 33 35 36 36 36 37 37 37 38 41 41 36 30 28 29 29 30 30 30 32 37 43 46 47 48 47
3 8 3 4 9 4 3 8 10 7 4 6 5 4 4 6 9 4 15 26 26 24 24 25 26 26 24 22 20 19 19 19 20 20 19 18 19 20 22 24 25 27 28 29 31 33 34 33 34 36 37 38 39 39 39 39 39 39 39 39 39 39 39 38 37 34 31 29 27 27 29 32 34 36 36 36 36 37 38 37 39 43 42 34 29 28 29 30 30 30 30 31 37 44 49 49 49
3 5 4 3 4 6 6 9 8 5 5 10 7 5 4 5 9 4 16 28 28 24 23 25 27 26 24 22 21 20 20 20 20 19 18 19 20 22 24 26 27 28 29 29 29 31 30 28 30 33 33 34 36 36 37 37 37 37 37 37 37 37 37 37 35 33 31 30 28 26 28 31 34 35 35 35 35 36 37 38 38 41 44 40 32 28 28 30 30 31 31 29 31 39 47 50 52
4 4 4 3 1 5 10 8 3 2 4 9 7 5 5 5 6 4 14 27 25 24 23 25 27 26 24 22 22 22 21 19 18 18 19 21 22 24 25 27 28 28 30 28 28 30 28 27 28 29 29 31 33 33 34 34 35 35 35 36 36 36 35 35 34 32 31 30 28 26 27 30 31 33 34 33 33 33 35 37 38 39 41 41 37 32 28 29 30 30 31 30 30 34 41 48 53
4 3 3 5 3 4 8 5 2 4 4 6 6 3 5 6 8 11 9 23 22 25 23 25 28 26 23 22 22 22 19 17 18 19 20 22 23 25 26 28 28 28 29 27 27 28 26 26 27 27 28 29 31 31 30 30 31 31 31 33 33 33 32 33 33 31 29 28 26 25 26 28 29 30 32 31 31 31 32 33 36 37 38 38 37 35 31 29 29 29 30 30 29 32 36 44 52
4 3 2 4 3 3 6 6 4 8 6 5 3 3 6 8 12 18 4 21 23 26 23 24 27 24 23 22 21 19 17 17 19 19 20 22 24 25 27 28 28 27 28 26 26 26 25 26 27 26 28 30 31 29 27 27 27 28 28 29 29 29 29 29 29 28 27 26 25 25 25 26 27 28 29 28 29 30 30 30 31 33 34 35 35 35 33 30 29 29 30 29 28 28 32 38 46
4 4 3 4 3 3 5 7 4 7 4 4 2 3 8 9 12 18 0 22 25 25 24 25 24 22 23 21 18 16 16 16 17 18 20 22 24 26 27 29 28 27 28 26 26 26 26 28 28 28 29 30 29 26 25 26 26 26 27 28 28 28 29 29 28 26 26 27 27 26 26 26 26 26 27 26 27 29 30 28 28 29 30 32 33 33 32 31 29 30 30 30 28 26 27 32 39
5 5 3 5 5 5 7 8 4 6 5 3 2 6 9 9 10 13 9 25 27 25 24 22 21 21 21 17 15 14 14 14 15 18 20 22 25 27 28 30 28 27 28 27 27 27 28 30 30 30 30 30 28 26 26 27 27 29 30 32 33 32 31 31 29 28 27 29 29 28 28 29 28 28 29 28 27 28 29 29 29 30 30 32 32 31 30 29 28 30 30 30 30 28 27 27 35
2 3 3 5 6 6 6 9 6 4 4 2 2 6 7 8 9 8 14 25 24 22 21 20 21 20 17 14 12 12 13 13 15 18 20 22 26 28 30 30 28 28 29 28 29 30 31 32 31 31 30 29 28 27 28 29 30 33 35 36 36 34 33 32 30 29 29 31 32 32 32 33 32 31 30 29 28 27 29 30 30 30 31 33 33 30 27 26 26 28 29 29 29 29 28 26 29
2 2 4 5 5 7 9 9 6 5 4 5 3 5 6 7 7 6 14 18 16 18 21 19 19 17 13 11 10 10 12 13 16 19 21 24 28 30 30 30 29 28 29 30 31 32 32 30 29 31 31 30 28 28 29 30 32 35 37 37 35 34 32 31 31 30 30 31 33 33 31 31 31 29 29 29 28 27 28 29 30 30 31 32 33 31 26 24 25 26 27 28 27 27 28 27 23
2 2 3 5 4 7 9 7 3 3 3 7 4 7 4 6 5 6 11 14 15 20 22 20 17 14 11 11 10 10 12 14 18 22 24 27 29 30 31 30 29 29 31 32 32 32 31 29 30 31 30 29 27 27 29 31 33 34 35 34 32 33 32 33 33 33 33 33 33 31 28 28 27 26 26 27 27 26 27 28 29 29 29 30 31 31 27 24 25 26 26 27 27 26 27 28 24
2 3 3 6 4 3 6 6 5 3 3 5 3 7 2 4 5 6 10 15 18 21 22 20 18 15 13 12 11 12 14 16 20 24 26 28 30 31 31 30 31 31 31 32 32 31 29 28 29 27 26 27 27 28 32 33 32 32 32 32 32 33 34 35 36 37 36 34 33 31 28 24 22 22 22 23 24 25 26 27 28 28 29 29 28 29 28 26 26 26 26 27 28 27 27 28 26
4 4 4 6 6 4 6 9 11 9 3 2 3 4 1 1 3 4 7 11 14 16 19 18 16 15 14 14 13 14 16 17 21 25 27 28 29 30 30 31 33 31 30 31 29 26 26 28 29 27 29 32 32 34 36 34 32 31 33 34 35 36 37 38 38 38 37 34 33 31 28 24 21 21 22 22 22 24 26 28 28 29 28 28 28 28 28 28 27 26 25 26 27 28 28 28 28
6 5 6 6 8 7 9 11 10 8 5 1 4 3 2 2 3 3 3 5 6 9 13 14 14 15 15 15 14 15 18 18 21 24 25 26 28 30 31 33 32 28 27 26 22 22 26 31 34 35 36 37 37 37 37 35 34 33 33 35 37 38 38 38 38 38 36 35 34 32 30 28 26 25 25 25 24 24 25 27 29 29 29 28 28 28 29 29 29 27 26 26 27 28 28 28 30
7 4 5 5 7 7 11 13 8 4 5 4 2 1 4 2 4 5 4 3 4 4 7 9 12 13 14 15 13 15 19 19 21 23 23 25 28 31 33 33 29 24 22 20 19 25 32 37 40 42 41 41 40 38 37 36 34 33 33 35 37 38 39 39 37 37 36 36 36 34 32 31 29 28 28 28 27 27 26 26 27 29 30 30 29 30 30 30 29 28 26 26 26 26 26 27 29
6 4 1 6 9 10 12 11 5 3 4 5 1 2 3 3 4 6 5 4 4 2 3 5 9 12 13 13 12 14 18 19 22 23 23 26 29 31 32 30 24 19 17 18 24 31 37 41 43 42 42 43 39 36 35 34 33 33 36 38 40 39 38 38 37 35 36 37 37 35 34 33 31 29 29 29 29 29 29 28 28 29 31 32 31 32 32 31 29 28 27 27 27 26 26 26 27
7 5 4 7 9 10 11 7 5 3 2 5 4 1 2 4 2 4 5 5 4 2 2 2 6 10 12 13 12 14 17 19 20 22 24 27 28 29 30 25 18 15 17 23 31 37 41 42 42 42 43 42 37 33 33 33 33 34 36 36 36 36 35 36 36 36 36 36 35 34 32 32 32 30 30 30 30 30 30 31 31 32 33 34 33 32 32 31 29 27 27 28 28 27 27 26 27
8 7 5 6 7 8 6 4 4 3 1 4 7 1 1 4 2 4 5 4 3 3 2 2 5 8 11 13 12 14 18 19 20 21 23 27 27 28 29 22 14 16 22 29 36 40 41 40 40 41 43 41 35 33 34 35 34 32 32 33 35 37 38 38 38 34 32 31 31 32 32 32 33 33 33 33 32 32 31 31 32 34 34 34 34 32 30 29 27 26 26 26 26 27 26 27 27
8 7 6 7 6 3 1 2 2 3 1 5 6 1 1 3 2 4 4 2 3 3 1 2 4 7 10 13 13 15 19 20 21 22 25 27 27 28 30 23 18 21 27 32 38 41 40 39 38 41 42 39 34 33 36 37 35 33 34 37 40 41 41 42 37 30 28 28 29 31 33 34 35 35 36 36 36 34 32 31 32 33 33 33 33 30 27 27 26 26 24 23 24 25 26 27 28
6 4 4 7 7 4 3 3 4 4 6 6 5 3 2 5 3 2 3 3 6 4 1 2 4 7 11 14 14 15 19 20 22 24 27 28 28 31 33 29 26 28 30 33 39 40 39 37 38 40 41 38 34 36 40 40 37 38 41 42 43 41 39 38 33 28 26 28 30 32 34 36 37 36 37 37 35 33 32 31 31 32 32 31 30 28 27 28 28 27 26 24 24 24 25 26 27
6 4 5 6 5 5 5 6 4 3 7 7 4 5 4 7 3 5 6 4 4 4 4 2 4 6 11 15 14 16 20 21 24 26 27 29 31 35 37 35 33 32 31 35 39 39 38 37 38 40 39 37 36 40 44 42 40 42 44 43 40 37 35 31 27 28 29 30 32 34 35 36 37 38 36 33 31 31 33 33 32 31 32 31 31 31 31 31 30 30 29 28 27 26 25 25 26
7 4 3 3 3 5 7 6 4 6 7 6 4 5 4 7 2 6 7 6 7 5 5 3 5 6 11 15 15 18 22 23 26 27 31 35 37 38 38 38 37 33 31 35 39 39 37 36 38 39 38 37 40 45 45 42 41 43 43 40 36 34 35 32 30 31 31 32 33 33 34 36 37 37 33 30 31 33 36 35 32 31 32 32 33 34 34 32 31 31 31 30 30 29 27 26 27
5 1 1 1 2 3 7 5 4 9 10 7 6 3 5 6 1 7 8 10 10 6 3 3 8 9 13 16 16 21 25 28 32 36 40 41 40 39 39 39 37 32 31 36 38 38 37 37 37 37 38 40 44 46 44 41 41 42 39 36 33 32 32 29 26 25 27 30 34 35 37 37 37 36 32 32 35 37 39 37 33 31 31 31 33 33 32 30 29 29 30 31 31 30 28 27 27
3 1 2 1 1 2 4 4 5 7 9 7 4 3 4 2 1 7 9 10 7 5 4 7 12 13 16 18 22 29 34 38 43 44 44 42 40 39 39 39 35 30 31 36 38 38 37 36 37 37 40 43 46 45 42 40 40 39 36 36 35 33 32 32 31 31 33 37 38 38 38 38 37 35 33 35 37 39 39 35 30 29 28 29 31 31 28 27 26 26 28 30 30 28 25 25 25
2 2 3 4 3 4 2 5 3 3 7 5 2 4 3 1 1 5 5 2 4 9 9 10 14 16 21 26 31 37 40 44 45 45 43 42 41 39 39 39 33 29 33 37 37 37 35 35 37 40 43 45 46 44 41 39 39 40 41 41 39 37 37 38 39 38 38 38 36 36 36 36 33 30 32 35 37 38 35 29 25 25 24 26 28 28 26 24 23 24 25 28 29 26 22 22 22
3 3 5 4 1 3 2 3 4 4 7 5 4 9 8 5 3 3 1 8 12 11 11 14 17 20 25 31 35 38 41 43 44 44 44 42 41 39 39 36 30 29 35 38 37 36 34 36 39 42 44 45 45 42 39 38 40 43 43 39 33 30 29 31 33 35 35 35 36 36 35 33 29 29 31 33 35 33 28 23 22 23 22 23 25 25 24 23 22 23 25 26 26 25 22 21 20
1 4 4 3 4 5 2 1 4 6 7 7 10 11 8 6 4 1 5 11 11 11 11 11 15 21 26 31 34 38 41 42 42 42 43 41 40 39 37 32 29 33 39 40 37 35 35 38 41 42 44 44 43 40 38 39 42 42 37 31 26 24 28 33 36 37 36 35 35 32 30 30 31 31 32 32 30 25 21 21 22 21 20 20 22 24 24 23 23 23 24 25 25 24 22 21 20
2 4 4 3 2 4 2 1 2 3 6 8 10 11 6 3 2 1 5 8 7 9 10 9 15 24 28 32 35 40 42 42 42 41 41 41 39 36 32 29 32 38 41 38 35 36 37 40 42 42 44 44 40 37 38 41 41 35 26 23 26 30 35 37 34 31 29 28 27 24 24 25 27 28 29 30 28 23 21 22 21 21 20 18 21 25 25 23 22 23 25 26 25 24 23 23 21
4 5 4 4 3 2 4 2 2 1 3 6 9 11 6 1 0 2 5 9 8 10 11 10 18 28 33 36 39 42 44 43 43 42 41 40 35 30 29 31 38 41 38 35 35 37 39 41 41 41 43 43 38 36 38 38 34 26 20 22 29 34 34 30 26 24 24 25 26 25 25 25 26 26 27 28 28 25 22 21 21 20 19 17 18 22 24 22 21 22 24 25 26 25 25 23 22
2 3 3 3 2 3 6 6 1 2 1 4 8 11 7 2 1 3 6 13 12 13 15 14 22 31 36 40 43 44 46 45 43 42 40 36 30 28 31 37 41 38 33 33 35 37 39 40 42 43 42 39 36 36 36 32 27 24 22 25 30 31 28 26 27 29 30 31 32 32 31 31 30 29 28 27 26 24 22 21 21 20 18 16 16 18 20 20 21 21 22 23 25 25 24 22 21
Wind_Direction
251 228 211 206 184 172 174 167 213 323 140 254 247 190 261 244 170 209 261 232 141 233 199 163 134 149 147 130 120 93 55 65 66 31 162 349 345 335 330 316 331 313 287 294 338 354 1 344 293 278 274 287 290 280 273 261 236 233 234 226 219 212 235 235 219 209 223 240 210 225 238 240 245 236 233 219 218 219 209 208 205 213 213 213 221 211 204 205 203 209 214 217 218 210 229 264 281
219 209 202 190 175 172 188 165 104 324 323 267 237 175 258 310 114 217 218 202 186 252 168 111 101 111 108 114 105 82 52 52 37 37 65 336 254 225 341 346 338 335 317 330 11 3 4 357 336 294 271 282 286 291 297 286 251 235 238 234 209 174 240 262 233 205 219 249 227 219 227 231 249 245 240 222 217 226 214 211 213 220 220 213 225 222 210 210 212 213 209 208 216 215 222 241 255
209 203 190 177 171 177 183 136 255 213 234 258 261 233 260 241 228 228 224 224 247 67 129 112 97 96 101 99 61 67 67 53 34 23 347 336 310 301 341 350 330 335 337 27 43 12 6 3 355 320 273 274 275 287 306 306 283 246 244 246 215 165 226 262 249 247 229 247 249 234 226 221 246 256 249 233 222 229 223 222 221 222 226 218 222 226 219 218 216 214 206 205 217 225 229 239 254
208 196 184 172 166 172 132 102 195 156 229 254 287 268 250 217 237 251 300 307 238 114 130 126 88 75 104 77 38 80 51 26 25 6 357 0 360 341 339 339 322 321 322 81 72 30 13 5 355 333 296 282 273 273 303 320 316 281 254 257 247 185 195 239 236 259 253 239 249 245 238 227 249 264 250 237 229 230 233 232 226 222 227 225 223 224 224 221 216 220 216 210 213 232 240 250 261
207 194 185 177 168 193 136 85 137 151 225 186 234 268 249 226 249 295 25 56 122 141 139 137 89 85 94 63 46 58 357 351 16 3 8 11 1 345 338 330 317 307 289 142 109 94 40 360 342 321 306 300 278 261 288 314 324 324 284 257 266 214 192 221 233 248 257 243 239 241 242 232 243 265 254 234 228 230 235 235 232 225 224 227 227 227 230 224 220 223 228 225 205 225 242 247 257
207 191 185 184 187 301 162 230 214 230 236 173 202 272 277 250 222 140 82 79 87 101 135 128 117 108 87 65 62 51 16 7 5 5 17 12 360 344 331 322 312 301 253 170 139 160 190 212 245 266 261 257 257 252 271 290 302 328 302 255 268 252 207 227 241 231 247 254 249 246 244 241 236 254 265 252 237 234 237 235 232 227 226 227 224 226 234 231 226 219 228 235 212 225 232 236 256
192 183 183 185 226 338 140 210 225 240 247 178 190 258 290 292 137 124 83 85 80 66 104 103 108 107 89 97 72 50 44 43 33 23 23 15 359 335 320 311 301 287 214 181 166 186 196 211 216 232 240 232 233 244 253 262 265 297 292 262 265 274 248 253 253 222 231 255 259 262 253 247 239 239 256 260 246 238 241 241 233 228 228 227 220 224 237 236 229 221 225 233 226 235 224 232 258
164 171 157 162 273 354 128 246 243 214 245 224 201 250 303 257 155 118 47 112 103 50 74 93 90 84 94 132 90 52 58 55 51 47 29 13 346 323 319 311 291 245 193 185 179 193 196 208 216 228 240 231 228 235 236 241 245 265 279 271 263 274 269 264 265 229 225 240 244 260 262 254 245 240 243 244 243 245 243 246 243 235 229 224 226 232 242 241 232 220 222 234 237 239 224 235 255
151 183 189 144 221 298 305 294 276 245 259 313 297 273 359 38 157 111 79 62 71 61 46 28 2 110 120 107 93 55 52 55 57 57 27 359 349 338 322 323 301 183 185 189 184 194 200 207 218 229 236 232 231 230 233 240 241 248 259 269 260 268 278 265 272 254 232 237 237 244 262 265 253 249 248 240 243 251 243 243 247 242 239 228 230 236 244 248 238 221 221 235 235 234 229 232 249
147 197 172 130 183 295 305 290 279 265 255 306 296 293 3 10 133 88 106 68 35 70 51 49 82 115 126 97 78 44 40 54 60 45 23 16 14 359 337 1 45 165 179 186 184 193 203 209 222 228 223 223 227 230 237 237 231 232 237 249 249 258 274 266 271 272 250 253 259 249 255 261 257 255 252 245 246 251 240 240 242 238 245 239 234 234 243 251 240 226 221 227 227 232 238 237 247
358 255 137 102 46 277 267 256 270 260 276 310 300 347 15 24 117 73 83 91 44 59 60 59 90 107 113 90 72 65 48 52 51 47 40 37 25 8 13 42 70 143 165 168 176 184 194 209 224 233 221 216 223 233 239 238 229 223 232 239 239 252 258 262 274 277 268 260 263 263 256 253 257 261 256 248 248 251 241 240 238 234 244 244 238 233 240 249 243 236 224 222 229 233 236 243 248
216 327 88 106 192 232 224 219 260 262 312 318 294 18 24 22 86 86 91 119 55 57 52 44 127 130 109 111 93 88 79 66 64 67 63 56 47 49 56 61 75 104 120 144 178 171 171 202 220 248 243 224 249 238 229 230 228 217 230 241 231 243 245 246 261 270 273 265 260 263 257 253 258 261 259 254 252 251 243 242 237 236 242 244 241 233 235 242 243 243 235 226 230 232 232 244 249
195 157 97 152 202 195 190 201 262 271 322 285 215 12 37 66 86 134 125 126 88 93 62 43 137 155 122 132 103 89 90 79 84 84 80 76 75 81 85 83 85 96 98 120 160 131 115 103 53 6 296 317 285 263 234 213 215 226 236 245 240 242 246 241 245 256 266 268 264 262 255 256 260 257 256 257 257 253 247 246 241 238 240 244 246 232 229 238 241 240 239 234 229 229 230 241 247
207 176 125 213 230 171 177 192 266 208 258 263 233 9 114 114 116 137 128 135 28 100 87 38 127 166 136 139 93 79 94 95 103 97 93 87 90 94 93 94 90 92 92 96 99 87 81 67 52 42 25 1 354 2 353 337 267 262 254 252 252 250 252 248 245 251 259 263 265 265 256 252 254 254 255 255 257 256 252 248 245 244 240 242 246 234 226 234 241 240 239 235 229 228 231 242 243
233 192 110 142 321 314 210 230 216 172 230 257 227 171 120 103 132 124 50 47 8 51 102 38 77 168 173 151 98 86 102 116 118 108 109 100 94 93 90 94 91 89 86 84 84 79 76 70 66 61 47 38 32 32 18 4 2 319 283 274 272 263 256 251 246 246 252 256 257 260 256 251 250 251 254 255 257 259 258 256 253 251 245 242 246 242 231 231 238 239 240 237 231 229 235 246 244
225 174 71 34 278 297 244 232 121 137 243 244 160 156 107 94 150 93 22 109 99 51 84 56 53 92 127 122 107 109 117 130 131 124 127 120 106 96 90 87 86 87 84 81 79 75 74 73 71 69 63 56 49 46 45 38 39 24 331 316 313 302 280 260 254 248 247 247 246 248 250 250 249 247 247 250 252 254 260 263 262 258 252 246 247 246 238 236 238 235 237 239 235 231 233 242 246
217 150 56 317 242 234 223 196 166 167 247 243 177 183 120 100 140 106 111 125 107 80 89 89 82 106 112 114 117 122 124 131 139 145 145 129 118 107 94 84 82 80 77 76 74 72 72 72 70 68 66 62 58 56 53 49 44 39 27 17 9 358 337 299 285 271 258 249 243 243 248 250 249 246 243 245 248 249 255 261 262 263 259 251 247 246 243 240 237 235 237 238 237 234 229 232 243
192 100 97 261 213 199 195 188 196 160 224 235 206 211 168 150 162 140 124 97 105 96 95 104 106 108 110 120 131 132 133 135 136 143 132 112 104 97 85 76 73 70 67 68 66 65 64 63 63 62 62 59 56 56 52 50 44 39 32 26 25 19 9 356 348 334 310 282 258 248 250 254 254 251 247 247 250 250 251 255 258 262 262 257 251 248 250 242 235 237 238 237 238 238 230 224 235
137 114 136 236 206 206 208 189 192 174 218 219 189 194 181 184 174 160 155 123 120 103 101 113 115 114 120 130 137 141 141 134 125 121 107 93 85 78 70 65 63 59 56 54 53 52 53 52 51 49 49 48 48 47 43 43 39 36 30 23 21 20 17 13 9 1 350 336 311 286 269 260 257 257 254 251 250 249 249 251 254 258 260 260 258 254 255 251 243 241 237 240 242 242 235 221 227
170 140 199 242 213 218 229 204 200 202 207 201 178 175 185 191 178 174 171 162 157 147 148 139 134 134 134 137 137 139 135 120 110 102 92 82 74 66 59 54 49 46 43 41 41 40 40 39 37 35 32 31 31 32 31 31 27 23 20 16 12 9 11 11 9 4 358 353 341 327 312 287 269 264 262 259 255 252 249 250 251 252 256 258 260 258 257 259 259 248 234 237 244 246 243 226 222
204 156 205 231 189 205 231 209 207 206 196 200 182 164 185 183 180 184 158 149 227 205 186 181 164 155 145 142 137 133 128 113 102 93 86 76 68 60 52 48 43 40 35 32 31 28 28 26 25 23 19 17 15 13 13 13 11 9 7 5 2 358 359 360 359 357 356 354 348 341 332 317 301 288 281 275 267 260 255 254 254 252 253 254 256 258 257 258 261 254 234 230 238 245 248 240 230
254 211 235 218 164 195 237 202 198 206 197 193 169 165 192 177 184 195 177 171 245 221 201 193 173 163 154 149 140 131 124 109 99 88 78 71 62 55 46 41 38 35 31 27 24 19 17 16 15 12 8 7 6 2 360 359 358 357 357 355 353 350 347 346 345 346 347 348 346 342 336 330 320 308 300 293 282 272 267 262 260 259 260 257 253 255 257 257 257 255 243 230 232 239 244 247 243
253 271 270 233 195 230 252 204 209 216 196 190 186 193 184 169 199 206 197 215 254 225 190 175 164 160 155 150 141 130 118 103 92 79 69 63 55 48 41 36 34 33 31 26 21 14 9 8 8 5 2 360 358 355 352 352 352 350 349 348 348 346 343 339 334 333 335 337 339 339 335 333 328 319 310 303 295 287 282 275 269 266 264 259 252 248 252 257 258 255 251 238 232 235 238 243 247
167 264 302 273 242 266 259 216 223 228 218 223 214 197 188 185 216 201 204 228 218 166 163 160 156 152 152 146 136 122 107 95 82 71 64 58 51 45 41 38 36 35 35 27 19 13 5 2 2 2 1 359 355 351 348 347 346 345 343 343 343 343 342 339 335 330 327 325 328 331 331 330 328 324 317 309 303 296 290 284 280 276 268 260 254 248 246 250 255 256 254 245 236 234 235 238 244
68 284 305 306 288 296 276 247 248 243 242 242 218 200 216 210 203 203 201 184 154 152 155 154 152 150 148 138 125 113 99 87 75 68 62 55 50 45 42 41 38 37 38 30 19 11 2 359 358 359 360 358 356 352 349 346 343 342 340 339 338 339 340 339 338 334 330 324 321 322 323 322 321 321 319 314 307 300 294 289 284 281 277 271 262 255 252 247 246 252 254 251 244 238 235 235 239
337 292 304 323 325 336 328 300 285 260 254 231 213 240 326 48 304 265 180 159 155 154 155 155 153 146 139 128 116 107 92 78 71 68 61 53 50 44 40 39 36 33 30 24 15 6 358 356 356 356 356 355 353 351 348 346 343 341 339 338 337 337 337 337 338 336 334 330 325 323 322 321 319 317 317 317 313 306 297 291 287 283 277 277 276 268 262 254 245 245 249 251 250 244 240 237 237
315 301 292 2 5 30 17 355 352 315 270 241 230 295 4 115 32 280 169 160 161 157 155 155 152 141 131 123 112 102 83 71 71 69 60 54 54 46 38 35 31 26 18 11 5 359 354 353 353 353 353 352 350 348 346 344 343 341 339 338 337 336 336 336 336 336 333 330 326 323 322 321 319 317 315 315 315 312 304 294 287 284 279 274 277 278 272 265 254 246 243 246 250 249 245 241 238
341 342 271 352 19 49 27 17 10 356 305 277 245 194 30 118 158 233 174 167 169 163 155 153 148 136 127 122 112 97 80 75 77 71 63 57 55 44 34 29 21 14 7 2 358 354 352 352 351 350 349 349 347 346 344 343 341 340 339 337 336 335 335 334 334 334 331 327 322 318 316 315 314 314 314 313 312 311 308 300 288 281 280 276 274 276 273 270 266 255 247 244 245 247 246 244 242
12 29 341 327 6 20 20 19 355 2 352 321 323 238 313 217 246 231 173 171 173 164 154 148 140 133 127 122 109 93 85 85 80 71 66 59 50 39 29 21 12 7 3 358 354 352 352 352 350 348 347 346 345 344 343 342 340 339 338 336 335 333 332 332 332 331 327 322 318 313 310 308 309 309 309 309 309 306 304 301 293 281 276 277 274 272 271 268 267 265 260 252 247 245 244 243 242
5 25 64 348 360 319 2 18 345 10 26 346 9 317 287 230 269 267 177 178 172 158 147 140 135 132 127 119 107 96 93 89 77 68 61 50 38 28 22 15 11 7 4 360 356 355 354 353 350 348 347 346 345 343 341 339 338 337 336 334 333 331 329 329 329 327 323 318 314 308 304 302 303 304 304 304 304 303 300 296 293 283 273 273 273 271 270 268 265 264 265 264 258 250 244 243 242
359 352 35 41 6 285 320 354 338 16 6 356 9 293 273 250 291 309 188 186 169 150 138 136 134 130 126 118 109 102 96 86 72 62 48 36 27 21 17 14 11 8 6 4 360 358 357 354 350 348 348 345 343 341 338 336 334 333 332 331 330 329 327 325 325 324 318 313 308 302 299 298 299 299 300 301 300 298 296 292 288 280 270 269 272 271 269 268 265 261 260 262 266 259 248 242 242
26 7 342 338 13 283 311 335 16 63 322 358 18 280 276 249 289 349 191 185 162 141 132 134 132 129 127 118 110 99 89 79 62 49 36 28 22 17 14 11 10 8 6 4 360 357 356 353 349 346 344 341 338 336 333 330 328 328 327 327 327 326 324 322 322 321 314 306 301 295 294 294 294 295 296 299 299 293 290 287 284 277 267 265 270 272 268 267 267 263 257 255 262 265 256 244 240
15 35 304 293 318 313 315 319 69 44 323 356 25 277 292 271 308 346 195 178 150 134 130 132 131 128 126 113 103 91 78 65 49 39 31 25 20 15 13 10 8 6 4 2 357 355 353 350 348 343 339 335 332 329 326 323 322 322 322 322 322 322 320 318 318 318 310 300 294 290 288 288 288 290 292 295 296 288 283 281 277 272 266 264 267 273 272 266 267 267 260 254 254 262 264 253 243
330 15 334 276 286 301 317 305 316 13 358 326 351 239 274 287 326 343 225 169 141 132 131 131 131 124 116 105 94 81 65 54 42 34 27 22 18 14 11 8 6 3 1 360 355 353 349 346 344 338 333 332 330 327 321 317 316 316 317 319 319 318 316 314 315 315 304 292 287 284 282 283 285 287 289 292 291 286 282 279 275 269 266 266 267 273 277 271 267 269 264 257 252 255 264 261 250
274 309 308 285 289 259 280 292 308 17 353 263 322 286 291 315 341 347 126 155 136 129 131 129 127 116 107 98 85 70 56 51 41 31 24 18 15 12 7 5 3 360 359 358 354 351 346 342 341 336 333 334 331 326 319 315 314 315 316 318 317 317 314 311 310 309 301 288 282 280 279 279 282 285 287 289 287 284 282 281 279 276 272 271 270 273 280 278 272 268 266 261 253 250 258 264 260
237 268 254 270 293 267 259 271 283 9 336 243 332 310 319 347 351 1 95 133 126 122 123 118 113 106 102 92 76 63 54 50 38 27 20 13 11 7 3 2 360 357 356 356 353 350 344 341 339 336 335 335 331 324 319 317 317 319 320 319 318 317 315 311 307 303 297 288 282 280 281 283 285 287 287 287 285 281 281 282 281 283 281 278 276 275 280 285 280 272 268 265 259 251 249 256 259
255 279 238 261 279 281 276 273 283 22 358 286 344 332 353 6 350 16 94 114 113 113 107 99 101 100 96 86 69 60 54 46 30 21 14 7 5 3 1 1 358 355 354 353 350 346 341 339 338 336 336 335 331 324 320 319 321 323 322 321 320 318 316 312 308 302 296 290 287 286 285 287 289 290 288 285 283 280 279 280 280 281 283 282 279 277 280 286 286 279 273 269 265 259 250 245 252
1 295 263 286 283 287 288 278 297 39 16 313 8 36 20 12 359 40 94 102 101 105 101 99 104 99 89 75 62 58 48 36 24 14 8 2 0 0 359 360 358 353 351 348 346 343 340 340 339 336 335 334 329 322 321 321 323 323 321 320 318 316 315 313 311 308 304 298 295 293 290 287 287 287 287 283 280 277 275 276 277 277 277 278 277 276 279 284 284 281 277 273 269 265 257 245 244
331 324 295 298 299 298 291 268 272 53 355 313 39 79 31 11 27 46 80 96 99 102 102 101 98 91 76 56 47 47 35 23 17 8 3 360 357 358 358 358 356 349 346 344 342 342 342 343 340 335 335 334 327 324 326 326 325 322 318 316 315 314 313 312 311 310 309 306 301 296 291 286 285 283 283 281 278 276 275 273 274 275 274 275 276 275 276 279 280 279 277 276 273 270 264 251 242
290 316 305 288 314 328 302 293 296 316 260 276 55 96 79 34 58 51 69 96 105 103 98 91 81 73 59 46 40 37 24 14 10 3 359 357 355 356 356 354 350 344 343 342 343 346 347 347 344 341 339 333 326 326 329 328 324 318 313 312 311 311 311 311 311 310 309 307 301 295 290 287 286 284 281 280 278 277 276 274 273 275 276 276 277 275 274 277 279 279 278 276 275 275 271 260 248
299 285 253 270 304 275 261 291 305 316 293 233 73 89 140 91 94 87 87 99 105 103 96 84 69 60 51 46 43 33 21 11 5 360 356 355 354 353 351 348 345 341 342 344 348 352 351 347 344 341 338 332 328 328 328 327 324 317 311 312 312 312 312 310 310 310 308 303 297 293 289 285 281 277 274 272 272 272 272 273 273 273 275 276 277 276 275 276 277 279 281 276 273 275 276 271 260
319 280 222 244 291 280 276 297 314 328 322 349 51 11 279 183 168 173 144 118 110 103 95 82 63 54 44 40 40 28 18 9 1 358 355 353 351 348 344 343 342 340 343 346 349 351 345 341 338 335 333 330 328 326 325 325 325 317 312 313 314 312 309 307 306 305 302 298 294 290 286 283 279 275 273 272 271 270 269 269 270 270 272 273 275 276 276 275 275 276 279 277 273 272 275 276 269
321 262 206 252 287 289 295 305 316 317 293 312 38 279 255 216 199 205 189 148 133 105 94 83 61 49 39 36 33 21 14 5 358 356 354 350 347 343 341 341 342 340 341 341 340 341 338 336 334 331 329 327 324 321 319 320 321 316 312 310 310 309 305 302 300 298 297 294 289 286 285 283 281 278 278 279 278 277 275 271 268 267 269 271 271 272 273 273 274 275 275 275 272 269 270 273 272
287 252 27 316 303 298 297 300 289 252 289 310 335 156 234 251 203 193 180 156 152 110 85 84 60 44 34 29 23 14 8 1 356 354 350 347 344 342 341 340 340 336 334 334 335 337 335 333 330 327 326 326 323 320 318 317 316 312 308 307 307 306 301 298 295 292 291 290 286 284 285 284 283 281 280 281 282 282 279 275 270 265 264 266 267 267 268 271 272 272 273 272 270 266 264 268 270
269 282 321 297 287 285 287 298 289 280 351 307 297 85 264 270 168 174 190 176 177 157 81 52 48 39 27 18 11 4 360 356 354 350 345 343 341 341 340 338 334 327 327 332 335 336 334 331 328 326 328 329 326 322 320 318 315 312 310 310 310 305 297 296 297 293 288 287 285 285 286 286 286 286 284 283 284 284 281 277 272 269 266 266 268 269 268 268 269 271 273 271 269 265 260 263 266
285 310 313 282 270 271 282 318 310 316 69 266 280 3 287 268 176 178 213 211 200 176 110 37 32 29 17 7 359 353 351 349 347 343 340 340 339 339 340 334 319 316 325 329 333 335 333 329 327 327 330 330 326 321 320 320 318 315 312 312 311 306 299 301 300 290 284 286 287 289 291 292 292 293 293 291 288 289 287 279 272 270 269 268 270 272 270 267 267 269 271 270 268 266 261 259 262
319 342 333 313 298 291 352 22 349 350 331 252 261 261 43 285 223 174 203 187 143 139 70 2 11 15 6 356 348 343 343 341 338 337 336 338 337 338 339 331 312 312 320 326 332 334 331 328 327 326 328 329 325 320 320 320 316 310 308 308 308 304 302 303 296 280 279 287 289 293 296 296 297 298 299 298 295 294 291 281 272 268 267 267 266 269 270 267 264 264 265 267 267 267 265 262 261
359 1 340 335 327 351 21 3 23 3 309 279 265 290 306 276 263 153 152 122 118 120 69 357 347 357 352 345 339 335 335 333 332 332 333 336 335 337 339 331 318 312 314 324 331 332 329 327 325 325 326 326 322 319 319 318 311 306 305 305 305 304 304 301 285 272 280 289 292 297 299 299 300 300 302 303 299 296 290 281 272 267 264 261 261 264 266 264 262 262 261 261 263 264 265 265 262
1 350 4 359 339 348 346 334 345 307 289 282 293 338 305 271 266 140 148 140 133 131 109 62 345 340 339 335 329 328 329 328 330 329 330 333 333 335 335 330 321 311 311 324 330 330 328 325 323 324 324 322 319 318 318 315 308 305 306 307 306 305 305 299 283 280 288 292 296 299 300 301 301 303 305 302 296 292 291 285 276 270 264 257 254 257 259 260 263 266 265 262 261 260 260 261 261
340 335 2 2 355 341 322 320 312 287 284 273 305 352 304 283 290 142 151 149 142 122 100 36 337 319 325 327 323 325 328 327 328 329 331 333 333 332 329 327 320 308 311 324 329 328 326 323 322 322 321 319 318 318 317 312 307 307 308 309 307 304 304 298 290 291 292 293 296 298 298 299 300 304 302 293 289 289 291 288 280 275 268 258 252 252 254 259 264 267 267 264 262 259 257 257 260
310 230 168 7 25 328 300 300 298 298 300 297 316 323 259 285 290 147 146 145 136 102 75 348 334 321 322 325 322 325 328 331 333 334 334 332 329 327 325 324 316 304 311 325 327 327 325 322 321 320 319 318 318 319 315 310 308 310 311 310 307 305 304 299 292 291 291 293 295 296 296 296 297 299 293 285 285 287 289 287 283 279 272 262 256 253 255 260 264 265 265 264 262 259 255 254 256
286 140 89 357 308 235 265 269 253 280 295 294 303 262 230 294 139 146 143 149 133 31 348 331 337 332 330 330 331 334 335 336 337 334 331 327 324 322 322 322 313 302 314 325 326 325 323 320 319 318 317 318 319 318 312 309 309 310 310 305 300 296 292 292 293 292 290 293 295 294 293 293 294 294 286 281 283 286 289 287 283 280 275 267 259 254 255 259 262 264 263 261 259 255 249 249 253
323 9 317 276 234 169 226 291 278 295 296 281 278 290 292 8 181 172 160 159 1 355 345 339 340 339 338 338 337 337 336 335 333 329 326 323 321 320 320 320 311 304 318 324 324 323 320 317 318 317 318 319 319 316 310 308 309 309 305 302 298 293 288 288 292 292 291 292 292 291 291 294 294 287 278 278 283 287 289 284 278 278 278 274 263 253 253 256 259 263 262 259 253 247 243 244 250
357 319 287 283 303 119 113 306 312 312 290 282 297 299 303 316 289 199 316 344 345 344 347 346 344 344 341 337 334 333 332 330 327 325 323 321 320 319 320 319 311 311 320 322 321 320 317 317 317 317 318 319 318 314 308 307 310 309 306 305 304 300 294 294 293 293 293 293 292 292 292 291 285 278 277 280 285 289 289 280 276 278 280 280 269 257 254 256 258 258 258 256 249 244 243 244 246
335 288 308 360 342 338 16 316 302 300 289 293 297 297 299 298 294 37 348 337 335 335 345 346 341 341 335 330 330 330 329 326 323 322 320 319 319 318 319 318 315 318 320 320 319 318 317 317 318 318 319 319 316 311 306 307 312 311 305 302 299 294 296 298 297 296 296 295 296 296 292 286 282 282 283 283 282 287 287 279 276 278 281 279 269 262 258 259 259 256 254 252 246 244 245 244 244
355 334 345 20 332 307 311 237 285 298 291 296 299 303 305 272 260 29 331 321 323 333 343 341 332 333 330 329 330 328 325 323 320 319 318 318 318 318 320 320 320 320 320 318 318 318 319 320 320 319 320 319 314 309 309 311 314 312 303 292 289 293 299 301 301 301 299 298 298 296 291 287 285 284 282 278 274 275 277 275 275 279 282 276 266 261 258 258 259 256 250 246 243 244 245 244 245
352 358 345 346 339 318 320 298 154 142 287 297 302 303 305 314 167 178 311 330 344 344 342 335 328 329 330 330 329 326 323 320 318 318 319 319 319 321 323 322 322 322 319 318 319 320 321 322 322 320 320 319 313 309 313 316 314 310 303 298 298 303 306 307 305 301 298 297 296 294 291 289 288 286 285 281 272 269 275 276 277 280 281 279 268 259 256 256 259 257 250 244 241 241 243 244 246
334 333 325 326 315 345 340 314 280 118 233 274 293 295 302 339 178 196 322 342 353 349 339 330 328 329 329 329 327 323 321 318 318 320 322 322 323 324 325 325 325 322 319 320 322 323 324 323 322 321 320 317 312 311 314 316 313 309 307 306 306 307 309 307 303 299 298 298 297 296 294 292 292 292 292 286 274 270 276 279 278 279 282 282 273 260 256 257 258 257 252 246 240 236 239 243 246